Total_Precipitation_Accumulation
0.68 0.86 0.98 0.99 1.01 1.05 1.08 1.03 1.04 1.02 1.01 0.98 1.00 1.09 1.16 1.11 1.04 1.10 1.08 1.01 0.97 0.89 0.85 0.86 0.82 0.78 0.86 0.89 0.94 0.93 0.88 0.92 0.95 0.56 0.45 0.49 0.63 0.74 0.81 0.76 0.75 0.74 0.74
0.60 0.72 0.85 0.95 1.00 1.05 1.03 1.05 1.11 1.11 1.05 0.96 0.93 1.01 1.11 1.12 1.06 1.07 1.07 1.02 1.01 0.98 0.91 0.91 0.89 0.86 0.89 0.92 1.00 1.00 0.92 0.86 0.93 0.78 0.60 0.63 0.73 0.82 0.85 0.83 0.82 0.80 0.72
0.59 0.69 0.80 0.92 0.95 0.98 0.94 0.97 1.13 1.24 1.21 1.06 0.98 1.00 1.09 1.15 1.10 1.03 1.07 1.06 0.98 0.92 0.90 0.93 0.95 0.95 0.90 0.90 1.00 1.05 0.99 0.94 0.97 0.97 0.77 0.69 0.78 0.90 1.01 1.00 0.95 0.93 0.82
0.55 0.66 0.75 0.85 0.88 0.87 0.87 0.86 0.99 1.16 1.26 1.19 1.06 1.01 1.07 1.19 1.22 1.20 1.21 1.16 1.07 0.93 0.82 0.82 0.91 1.04 1.04 1.05 1.10 1.08 1.11 1.15 1.14 1.13 0.97 0.86 0.90 0.99 1.13 1.18 1.15 1.09 1.02
0.54 0.62 0.66 0.74 0.83 0.84 0.81 0.84 0.92 1.05 1.13 1.16 1.15 1.07 1.07 1.27 1.50 1.66 1.55 1.28 1.10 1.00 0.83 0.75 0.84 1.08 1.26 1.43 1.48 1.37 1.37 1.50 1.48 1.43 1.30 1.15 1.05 1.10 1.21 1.20 1.26 1.18 1.16
0.55 0.59 0.62 0.70 0.82 0.86 0.80 0.83 0.93 1.03 1.08 1.10 1.11 1.10 1.07 1.24 1.60 1.82 1.50 1.16 1.03 0.97 0.91 0.80 0.84 1.07 1.22 1.34 1.48 1.46 1.50 1.68 1.79 1.74 1.59 1.37 1.07 0.97 1.05 1.25 1.45 1.59 1.52
0.55 0.56 0.62 0.71 0.76 0.84 0.84 0.86 0.96 1.05 1.07 1.06 1.04 1.04 1.01 1.06 1.39 1.62 1.38 1.08 0.97 0.92 0.89 0.85 0.87 0.97 1.09 1.11 1.21 1.24 1.27 1.45 1.70 1.81 1.76 1.38 1.16 1.06 1.26 1.48 1.55 1.66 1.54
0.58 0.56 0.61 0.69 0.72 0.81 0.86 0.88 0.99 1.08 1.05 1.04 1.03 1.00 0.97 1.00 1.27 1.52 1.34 1.07 0.98 0.93 0.93 0.87 0.81 0.86 0.98 1.13 1.21 1.16 1.09 1.16 1.40 1.60 1.79 1.60 1.39 1.41 1.68 1.93 2.04 2.06 1.80
0.61 0.55 0.58 0.67 0.72 0.79 0.84 0.91 0.99 1.08 1.04 1.02 0.99 1.00 0.95 0.94 1.19 1.54 1.42 1.10 1.02 0.96 0.96 0.90 0.81 0.77 0.96 1.13 1.10 1.07 1.00 1.04 1.17 1.38 1.54 1.61 1.62 1.77 2.07 2.46 2.63 2.62 2.35
0.58 0.51 0.54 0.61 0.65 0.73 0.80 0.89 0.97 0.98 0.97 0.99 0.94 0.94 0.92 0.87 1.04 1.44 1.55 1.15 1.05 0.98 0.97 0.93 1.00 0.98 1.07 1.09 1.00 1.06 1.16 1.04 0.99 1.04 1.09 1.14 1.20 1.35 1.76 2.21 2.56 2.69 2.46
0.56 0.52 0.54 0.58 0.61 0.69 0.78 0.82 0.89 0.93 0.92 0.96 0.95 0.93 0.91 0.89 0.93 1.20 1.53 1.26 1.09 0.99 1.00 0.99 0.94 1.09 1.11 1.08 1.05 1.03 1.21 1.13 1.03 1.10 1.08 1.01 1.01 1.12 1.30 1.65 2.17 2.57 2.59
0.52 0.53 0.58 0.63 0.65 0.68 0.74 0.74 0.78 0.87 0.91 0.94 0.97 1.00 0.98 0.93 0.97 1.16 1.35 1.31 1.19 1.00 0.97 0.90 0.89 1.05 1.10 1.13 1.09 1.14 1.19 1.18 1.09 1.10 1.04 0.97 0.98 1.07 1.21 1.41 1.70 2.04 2.21
0.50 0.52 0.59 0.67 0.70 0.71 0.70 0.72 0.77 0.83 0.90 0.94 0.95 0.96 0.99 0.96 1.01 1.20 1.18 1.19 1.19 1.08 1.07 1.11 1.07 1.15 1.19 1.10 1.07 1.11 1.08 1.02 1.09 1.13 1.01 0.88 0.86 0.97 1.08 1.19 1.31 1.53 1.74
0.48 0.50 0.56 0.62 0.69 0.72 0.68 0.67 0.70 0.79 0.90 0.91 0.91 0.88 0.88 0.91 1.05 1.18 1.09 1.06 1.13 1.18 1.21 1.20 1.22 1.23 1.20 1.14 1.07 0.97 0.89 0.91 1.01 1.04 0.97 0.86 0.79 0.84 0.97 1.07 1.19 1.30 1.56
0.45 0.45 0.49 0.53 0.65 0.75 0.75 0.70 0.69 0.70 0.86 0.95 0.90 0.87 0.90 1.01 1.15 1.25 1.16 1.12 1.16 1.23 1.31 1.35 1.30 1.25 1.24 1.13 0.98 0.86 0.82 0.87 0.93 0.89 0.90 0.91 0.87 0.86 0.88 0.95 1.14 1.25 1.43
0.44 0.43 0.45 0.50 0.59 0.69 0.74 0.76 0.84 0.82 0.84 0.84 0.83 0.88 0.87 1.01 1.12 1.12 1.13 1.16 1.23 1.30 1.34 1.33 1.17 1.02 0.98 0.93 0.87 0.81 0.78 0.78 0.77 0.81 0.88 0.88 0.88 0.89 0.89 0.90 1.05 1.22 1.35
0.46 0.46 0.47 0.51 0.56 0.64 0.67 0.68 0.80 0.90 0.93 0.87 0.82 0.84 0.91 0.99 1.01 1.03 1.07 1.12 1.18 1.19 1.14 1.02 0.92 0.86 0.82 0.79 0.76 0.74 0.74 0.70 0.70 0.77 0.82 0.84 0.82 0.87 0.91 0.93 0.99 1.13 1.25
0.47 0.52 0.55 0.53 0.57 0.64 0.64 0.62 0.66 0.74 0.82 0.87 0.88 0.86 0.90 0.95 0.99 1.00 1.04 1.15 1.19 1.02 0.87 0.85 0.83 0.81 0.83 0.85 0.82 0.79 0.75 0.74 0.75 0.73 0.74 0.76 0.80 0.87 0.90 0.89 0.94 1.07 1.17
0.53 0.55 0.58 0.57 0.60 0.64 0.64 0.64 0.65 0.67 0.70 0.76 0.84 0.90 0.97 0.98 0.99 1.03 1.01 0.99 0.97 0.89 0.80 0.79 0.79 0.82 0.86 0.88 0.83 0.79 0.78 0.75 0.71 0.70 0.68 0.67 0.71 0.80 0.83 0.81 0.88 0.99 1.09
0.61 0.68 0.68 0.62 0.63 0.67 0.69 0.71 0.70 0.70 0.73 0.74 0.77 0.83 0.97 1.04 1.01 1.02 0.97 0.91 0.87 0.82 0.79 0.81 0.80 0.82 0.86 0.88 0.85 0.81 0.80 0.76 0.71 0.67 0.65 0.64 0.65 0.73 0.78 0.79 0.86 0.94 0.97
0.69 0.73 0.78 0.70 0.67 0.73 0.78 0.78 0.75 0.77 0.79 0.76 0.73 0.78 1.00 1.05 0.95 0.84 0.85 0.84 0.84 0.83 0.84 0.86 0.85 0.83 0.84 0.85 0.86 0.82 0.78 0.75 0.71 0.68 0.65 0.64 0.66 0.70 0.72 0.78 0.84 0.87 0.91
0.73 0.75 0.77 0.76 0.73 0.78 0.83 0.82 0.81 0.82 0.82 0.81 0.77 0.80 0.90 0.85 0.81 0.80 0.80 0.79 0.79 0.81 0.84 0.89 0.88 0.84 0.84 0.86 0.88 0.85 0.77 0.71 0.69 0.69 0.68 0.66 0.66 0.66 0.67 0.72 0.77 0.81 0.86
0.77 0.80 0.83 0.83 0.78 0.85 0.88 0.87 0.85 0.84 0.83 0.80 0.81 0.80 0.81 0.80 0.80 0.83 0.85 0.83 0.83 0.85 0.83 0.82 0.83 0.80 0.79 0.81 0.82 0.86 0.82 0.71 0.67 0.70 0.74 0.70 0.64 0.63 0.64 0.66 0.67 0.73 0.79
0.83 0.85 0.88 0.89 0.85 0.85 0.88 0.92 0.90 0.87 0.86 0.85 0.85 0.84 0.81 0.81 0.80 0.81 0.83 0.86 0.88 0.86 0.81 0.79 0.77 0.76 0.75 0.77 0.76 0.77 0.75 0.74 0.80 0.82 0.77 0.76 0.69 0.63 0.63 0.64 0.63 0.67 0.76
0.90 0.90 0.92 0.95 0.95 0.93 0.92 0.94 0.92 0.91 0.90 0.87 0.86 0.85 0.82 0.80 0.79 0.78 0.80 0.82 0.85 0.84 0.76 0.75 0.78 0.79 0.77 0.74 0.71 0.71 0.78 0.86 0.92 0.99 0.99 0.91 0.77 0.65 0.64 0.64 0.63 0.66 0.71
0.91 0.92 0.93 0.96 0.98 0.95 0.96 0.98 0.96 0.94 0.95 0.89 0.84 0.84 0.83 0.82 0.79 0.77 0.77 0.79 0.84 0.82 0.76 0.73 0.76 0.78 0.76 0.74 0.73 0.78 0.84 0.86 0.90 0.93 0.98 0.99 0.84 0.69 0.66 0.68 0.64 0.65 0.69